Location: Bergnershof
(48.9468°N, 10.9431°E)
Time: 11:53:02
(UTC+00:00)

Cosmos 1898 Rocket - Pass Details

Date: 03 March 2021
Orbit: 753 x 784 km, 74.0° (Epoch: 13 April)

Event Time Altitude Azimuth Distance (km) Brightness Sun altitude
Rises 19:51:56 0° 339° (NNW) 3,228 7.4 -27.9°
Reaches altitude 10° 19:54:21 10° 343° (NNW) 2,303 6.4 -28.3°
Enters shadow 19:57:55 40° 8° (N) 1,119 4.4 -28.8°
